EZY293T EGGP-EGAE

Flight info

Callsign EZY293T
Flight time 0h 40m
Altitude 24000
Route WAL M146 IPSET P6 BELZU
Aircraft A319/M-SDE2E3FGIJ1RWXYZ/LB1

Departure

Time 2026-05-04 10:42
Airport Liverpool John Lennon Airport (EGGP)

Arrival

Time 2026-05-04 11:22
Airport City of Derry Airport (EGAE)
Time Latitude Longitude Altitude Speed Heading
2026-05-04 10:02 53.33630 -2.85201 89 ft 0 kts 265°
2026-05-04 10:31 53.33630 -2.85193 89 ft 3 kts 265°
2026-05-04 10:31 53.33633 -2.85149 90 ft 4 kts 262°
2026-05-04 10:32 53.33655 -2.85076 90 ft 0 kts 175°
2026-05-04 10:34 53.33654 -2.85076 90 ft 1 kts 175°
2026-05-04 10:34 53.33633 -2.85074 89 ft 5 kts 176°
2026-05-04 10:34 53.33584 -2.85067 89 ft 8 kts 175°
2026-05-04 10:34 53.33535 -2.85080 91 ft 8 kts 220°
2026-05-04 10:35 53.33520 -2.85189 90 ft 10 kts 265°
2026-05-04 10:35 53.33514 -2.85297 89 ft 9 kts 265°
2026-05-04 10:35 53.33510 -2.85389 92 ft 8 kts 266°
2026-05-04 10:35 53.33506 -2.85479 89 ft 8 kts 265°
2026-05-04 10:36 53.33502 -2.85569 89 ft 8 kts 266°
2026-05-04 10:36 53.33498 -2.85670 91 ft 9 kts 265°
2026-05-04 10:36 53.33492 -2.85792 90 ft 13 kts 265°
2026-05-04 10:36 53.33484 -2.85951 89 ft 14 kts 265°
2026-05-04 10:37 53.33476 -2.86117 89 ft 15 kts 265°
2026-05-04 10:37 53.33469 -2.86283 89 ft 14 kts 265°
2026-05-04 10:37 53.33461 -2.86446 89 ft 14 kts 265°
2026-05-04 10:37 53.33454 -2.86604 89 ft 9 kts 265°
2026-05-04 10:39 53.33404 -2.86725 89 ft 0 kts 202°
2026-05-04 10:40 53.33391 -2.86731 92 ft 5 kts 191°
2026-05-04 10:40 53.33336 -2.86715 92 ft 11 kts 152°
2026-05-04 10:41 53.33288 -2.86643 90 ft 8 kts 112°
2026-05-04 10:41 53.33287 -2.86597 89 ft 0 kts 86°
2026-05-04 10:41 53.33289 -2.86563 88 ft 21 kts 84°
2026-05-04 10:42 53.33323 -2.85833 92 ft 100 kts 85°
2026-05-04 10:42 53.33398 -2.84321 167 ft 150 kts 84°
2026-05-04 10:42 53.33492 -2.82605 888 ft 147 kts 84°
2026-05-04 10:42 53.33579 -2.80903 1531 ft 154 kts 84°
2026-05-04 10:43 53.33787 -2.79022 1993 ft 175 kts 68°
2026-05-04 10:44 53.41039 -2.84845 7283 ft 278 kts 264°
2026-05-04 10:45 53.40805 -2.88075 8296 ft 280 kts 264°
2026-05-04 10:45 53.40590 -2.91347 9266 ft 284 kts 265°
2026-05-04 10:45 53.40382 -2.94632 10188 ft 288 kts 265°
2026-05-04 10:45 53.40163 -2.98110 10605 ft 312 kts 265°
2026-05-04 10:46 53.39930 -3.01814 11215 ft 323 kts 265°
2026-05-04 10:46 53.39694 -3.05578 12034 ft 327 kts 265°
2026-05-04 10:46 53.39685 -3.09409 12848 ft 331 kts 277°
2026-05-04 10:46 53.40223 -3.13184 13660 ft 335 kts 291°
2026-05-04 10:47 53.41299 -3.16671 14379 ft 340 kts 305°
2026-05-04 10:47 53.42830 -3.19644 15078 ft 343 kts 315°
2026-05-04 10:47 53.44525 -3.22498 15796 ft 347 kts 315°
2026-05-04 10:47 53.46236 -3.25403 16526 ft 351 kts 315°
2026-05-04 10:49 53.58515 -3.46891 21032 ft 378 kts 307°
2026-05-04 10:49 53.60042 -3.50516 21641 ft 382 kts 307°
2026-05-04 10:50 53.61591 -3.54201 22244 ft 386 kts 307°
2026-05-04 10:51 53.72685 -3.80713 24086 ft 399 kts 308°
2026-05-04 10:52 53.74275 -3.84541 24090 ft 399 kts 308°
2026-05-04 10:52 53.75870 -3.88392 24089 ft 399 kts 308°
2026-05-04 10:52 53.77461 -3.92232 24089 ft 399 kts 308°
2026-05-04 10:54 53.88574 -4.19188 24084 ft 399 kts 307°
2026-05-04 10:54 53.90158 -4.23061 24083 ft 399 kts 307°
2026-05-04 10:56 54.01106 -4.49989 24084 ft 395 kts 307°
2026-05-04 10:56 54.02821 -4.53616 24084 ft 392 kts 316°
2026-05-04 10:56 54.04681 -4.57020 24084 ft 392 kts 315°
2026-05-04 10:57 54.06534 -4.60440 24084 ft 392 kts 315°
2026-05-04 10:57 54.08355 -4.63830 24084 ft 392 kts 315°
2026-05-04 10:57 54.10219 -4.67318 24084 ft 392 kts 315°
2026-05-04 10:57 54.12056 -4.70760 24087 ft 392 kts 315°
2026-05-04 10:58 54.13868 -4.74153 24087 ft 392 kts 315°
2026-05-04 10:58 54.15705 -4.77592 24078 ft 392 kts 315°
2026-05-04 10:58 54.17540 -4.81029 24087 ft 391 kts 315°
2026-05-04 10:58 54.19374 -4.84471 24087 ft 390 kts 315°
2026-05-04 10:59 54.21199 -4.87903 24087 ft 390 kts 315°
2026-05-04 10:59 54.23030 -4.91341 24101 ft 390 kts 315°
2026-05-04 10:59 54.24856 -4.94772 24100 ft 390 kts 315°
2026-05-04 10:59 54.26682 -4.98212 24100 ft 390 kts 315°
2026-05-04 11:00 54.28485 -5.01612 24102 ft 390 kts 315°
2026-05-04 11:01 54.41218 -5.25787 24105 ft 389 kts 314°
2026-05-04 11:02 54.43020 -5.29238 24106 ft 386 kts 314°
2026-05-04 11:02 54.44765 -5.32583 23982 ft 375 kts 314°
2026-05-04 11:05 54.59215 -5.85033 17907 ft 343 kts 289°
2026-05-04 11:06 54.59929 -5.88941 17487 ft 340 kts 289°
2026-05-04 11:06 54.60635 -5.92820 17064 ft 337 kts 289°
2026-05-04 11:06 54.61330 -5.96615 16663 ft 334 kts 289°
2026-05-04 11:06 54.62029 -6.00430 16248 ft 331 kts 289°
2026-05-04 11:08 54.68050 -6.25039 13502 ft 314 kts 323°
2026-05-04 11:10 54.80058 -6.38084 10938 ft 283 kts 327°
2026-05-04 11:12 54.91551 -6.50653 8269 ft 273 kts 326°
2026-05-04 11:12 54.93151 -6.52403 7886 ft 271 kts 326°
2026-05-04 11:12 54.94211 -6.53562 7581 ft 272 kts 327°
2026-05-04 11:12 54.96326 -6.55876 7101 ft 267 kts 326°
2026-05-04 11:13 54.97881 -6.57584 6848 ft 257 kts 326°
2026-05-04 11:13 54.98877 -6.58678 6763 ft 243 kts 326°
2026-05-04 11:13 55.00230 -6.60166 6638 ft 223 kts 326°
2026-05-04 11:13 55.01503 -6.61568 6394 ft 211 kts 326°
2026-05-04 11:14 55.02726 -6.62918 5963 ft 208 kts 326°
2026-05-04 11:14 55.03949 -6.64269 5496 ft 206 kts 325°
2026-05-04 11:14 55.05159 -6.65610 5067 ft 206 kts 325°
2026-05-04 11:16 55.11010 -6.76816 3959 ft 171 kts 263°
2026-05-04 11:16 55.10698 -6.78780 3814 ft 164 kts 256°
2026-05-04 11:16 55.10381 -6.80658 3646 ft 158 kts 256°
2026-05-04 11:17 55.10079 -6.82436 3517 ft 152 kts 256°
2026-05-04 11:17 55.09783 -6.84177 3385 ft 147 kts 256°
2026-05-04 11:19 55.07941 -6.94940 2420 ft 126 kts 257°
2026-05-04 11:19 55.07688 -6.96412 2240 ft 127 kts 257°
2026-05-04 11:19 55.07434 -6.97886 2070 ft 127 kts 257°
2026-05-04 11:19 55.07179 -6.99368 1892 ft 128 kts 257°
2026-05-04 11:20 55.06924 -7.00859 1714 ft 128 kts 257°
2026-05-04 11:20 55.06663 -7.02357 1536 ft 129 kts 257°
2026-05-04 11:20 55.06405 -7.03859 1376 ft 129 kts 257°
2026-05-04 11:20 55.06147 -7.05360 1198 ft 129 kts 257°
2026-05-04 11:22 55.04370 -7.15635 29 ft 106 kts 252°
2026-05-04 11:22 55.04236 -7.16379 31 ft 35 kts 253°
2026-05-04 11:23 55.04182 -7.16634 33 ft 14 kts 218°
2026-05-04 11:23 55.04084 -7.16653 31 ft 11 kts 182°
2026-05-04 11:24 55.04054 -7.16792 31 ft 0 kts 273°
2026-05-04 11:27 55.04144 -7.16908 33 ft 13 kts 75°
2026-05-04 11:28 55.04175 -7.16732 34 ft 16 kts 72°
2026-05-04 11:28 55.04208 -7.16542 31 ft 18 kts 73°
2026-05-04 11:28 55.04245 -7.16327 31 ft 19 kts 73°
2026-05-04 11:28 55.04281 -7.16118 30 ft 16 kts 73°
2026-05-04 11:29 55.04290 -7.15984 31 ft 10 kts 111°
2026-05-04 11:29 55.04230 -7.15930 31 ft 11 kts 167°
2026-05-04 11:29 55.04158 -7.15901 29 ft 11 kts 167°
2026-05-04 11:29 55.04093 -7.15875 31 ft 9 kts 161°
2026-05-04 11:31 55.04017 -7.15678 31 ft 0 kts 168°